Flag for Germany Weather past 2 weeks in Gotha, Thuringia, Germany

Now
30 °F

Overcast.


Feels Like: 24 °F
Forecast: 18 / 26 °F
Wind: 6 mph from Southeast

Location: Erfurt-Bindersleben

Current Time: Dec 27, 2014 at 12:46:22 PM

Latest Report: Dec 27, 2014 at 12:00 PM


Visibility: 38 mi

Pressure: 29.71 "Hg

Humidity: 67%

Dew point: 20 °F

Location of GothaLocation

Historic Weather in Gotha — Graph

°F

Gotha temperature yesterday

Maximum temperature yesterday: 35 °F (at 12:00 AM)
Minimum temperature yesterday: 24 °F (at 10:00 PM)
Average temperature yesterday: 32 °F

Past Weeks' High & Low Weather Summary

 TemperatureHumidityPressure
High54 °F (Dec 18, 11:00 PM)100% (Dec 13, 10:00 PM)30.40 "Hg (Dec 13, 10:00 PM)
Low24 °F (Dec 26, 10:00 PM)74% (Dec 23, 11:00 AM)29.50 "Hg (Dec 12, 5:00 PM)
Average40 °F86%30.00 "Hg
* Reported Dec 12 11:00 AM — Dec 27 11:00 AM, Gotha, Weather by CustomWeather, © 2014

Note: Actual official high and low records may vary slightly from our data, if they occured in-between our weather recording intervals... More about our weather records

Advertising

Gotha weather history for previous 24 hours

 ConditionsComfort  
Time TempWeatherWind HumidityBarometerVisibility
11:00 AM
Dec 27
29 °FOvercast.5 mph76%29.75 "Hg31 mi
10:00 AM29 °FOvercast.6 mph80%29.78 "Hg31 mi
9:00 AM29 °FOvercast.7 mph84%29.81 "Hg25 mi
8:00 AM28 °FOvercast.6 mph86%29.85 "Hg25 mi
7:00 AM28 °FOvercast.7 mph89%29.89 "Hg31 mi
6:00 AM28 °FOvercast.5 mph89%29.94 "Hg31 mi
5:00 AM28 °FPassing clouds.6 mph90%30.01 "Hg31 mi
4:00 AM27 °FPassing clouds.5 mph92%30.07 "Hg31 mi
3:00 AM26 °FPassing clouds.5 mph91%30.11 "Hg31 mi
2:00 AM26 °FPassing clouds.5 mph88%30.15 "Hg31 mi
1:00 AM26 °FPassing clouds.5 mph85%30.19 "Hg31 mi
12:00 AM26 °FPassing clouds.6 mph84%30.22 "Hg31 mi
11:00 PM
Dec 26
26 °FPassing clouds.5 mph88%30.26 "Hg31 mi
10:00 PM24 °FPassing clouds.3 mph89%30.29 "Hg31 mi
9:00 PM26 °FPassing clouds.3 mph91%30.31 "Hg31 mi
8:00 PM26 °FClear.3 mph93%30.33 "Hg31 mi
7:00 PM29 °FClear.2 mph88%30.33 "Hg31 mi
6:00 PM30 °FClear.2 mph81%30.34 "Hg31 mi
5:00 PM31 °FPassing clouds.1 mph81%30.35 "Hg31 mi
4:00 PM33 °FPassing clouds.3 mph77%30.35 "Hg31 mi
3:00 PM35 °FPassing clouds.5 mph78%30.35 "Hg31 mi
2:00 PM34 °FPassing clouds.5 mph80%30.35 "Hg25 mi
1:00 PM35 °FPassing clouds.7 mph82%30.35 "Hg19 mi
12:00 PM34 °FScattered clouds.5 mph84%30.36 "Hg19 mi
Weather by CustomWeather, © 2014

See weather overviewHow to use our weather pages